| time (UTC) | temp F | wind direction | speed knots | gust knots | rain 1hr in | rain 24hr in | rain mn in | humidity % | barometer mb |
| 20260510193033 | 67 | 117 | 0.0 | 0.0 | 0.02 | 0.12 | 0.02 | 80 | 1010.2 |
| 20260510191535 | 66 | 118 | 0.0 | 1.7 | 0.02 | 0.12 | 0.02 | 83 | 1010.4 |
| 20260510190037 | 67 | 80 | 0.0 | 2.6 | 0.01 | 0.11 | 0.01 | 77 | 1010.5 |
| 20260510184526 | 69 | 153 | 0.0 | 0.9 | 0.00 | 0.11 | 0.00 | 71 | 1010.3 |
| 20260510183025 | 69 | 74 | 0.0 | 2.6 | 0.00 | 0.11 | 0.00 | 70 | 1010.3 |
| 20260510181526 | 69 | 177 | 0.0 | 1.7 | 0.00 | 0.11 | 0.00 | 69 | 1010.3 |
| 20260510180024 | 67 | 41 | 0.0 | 0.9 | 0.00 | 0.11 | 0.00 | 71 | 1010.4 |
| 20260510174524 | 68 | 75 | 0.0 | 0.9 | 0.00 | 0.15 | 0.00 | 70 | 1010.5 |
| 20260510173023 | 70 | 215 | 0.0 | 1.7 | 0.00 | 0.15 | 0.00 | 68 | 1010.4 |
| 20260510171527 | 71 | 74 | 0.0 | 1.7 | 0.00 | 0.15 | 0.00 | 66 | 1010.4 |
| 20260510170019 | 70 | 208 | 0.0 | 1.7 | 0.00 | 0.15 | 0.00 | 67 | 1010.7 |
| 20260510164517 | 70 | 45 | 0.0 | 1.7 | 0.00 | 0.17 | 0.00 | 70 | 1011.0 |
| 20260510163016 | 69 | 195 | 0.0 | 1.7 | 0.00 | 0.17 | 0.00 | 70 | 1011.2 |
| 20260510161512 | 68 | 174 | 0.0 | 1.7 | 0.00 | 0.17 | 0.00 | 72 | 1011.3 |
| 20260510160013 | 67 | 212 | 0.0 | 1.7 | 0.00 | 0.19 | 0.00 | 72 | 1011.4 |
| 20260510154509 | 66 | 160 | 0.0 | 1.7 | 0.00 | 0.19 | 0.00 | 75 | 1011.6 |
| 20260510153002 | 64 | 115 | 0.0 | 2.6 | 0.00 | 0.19 | 0.00 | 79 | 1011.7 |
| 20260510151558 | 62 | 155 | 0.0 | 1.7 | 0.00 | 0.19 | 0.00 | 82 | 1012.0 |
| 20260510150056 | 61 | 108 | 0.0 | 1.7 | 0.00 | 0.19 | 0.00 | 85 | 1011.9 |
| 20260510144602 | 60 | 147 | 0.0 | 0.9 | 0.00 | 0.21 | 0.00 | 84 | 1011.9 |
| 20260510143048 | 59 | 137 | 0.0 | 1.7 | 0.00 | 0.21 | 0.00 | 88 | 1011.9 |
| 20260510141545 | 58 | 97 | 0.0 | 0.9 | 0.00 | 0.21 | 0.00 | 89 | 1012.0 |
| 20260510140044 | 57 | 134 | 0.0 | 0.0 | 0.00 | 0.21 | 0.00 | 89 | 1012.0 |
| 20260510134542 | 57 | 118 | 0.0 | 0.9 | 0.00 | 0.23 | 0.00 | 91 | 1012.0 |
| 20260510133036 | 55 | 44 | 0.0 | 0.9 | 0.00 | 0.23 | 0.00 | 94 | 1012.1 |
| 20260510131533 | 54 | 122 | 0.0 | 0.9 | 0.00 | 0.23 | 0.00 | 96 | 1012.0 |
| 20260510130031 | 53 | 126 | 0.0 | 0.9 | 0.00 | 0.23 | 0.00 | 96 | 1012.0 |
| 20260510124530 | 53 | 64 | 0.0 | 0.9 | 0.00 | 0.25 | 0.00 | 96 | 1011.9 |
| 20260510123028 | 53 | 81 | 0.0 | 0.9 | 0.00 | 0.25 | 0.00 | 96 | 1011.9 |
| 20260510121526 | 52 | 22 | 0.0 | 0.0 | 0.00 | 0.25 | 0.00 | 96 | 1011.9 |
| 20260510120025 | 52 | 22 | 0.0 | 0.0 | 0.00 | 0.25 | 0.00 | 97 | 1011.9 |
| 20260510114525 | 52 | 22 | 0.0 | 0.0 | 0.00 | 0.26 | 0.00 | 97 | 1011.9 |
| 20260510113029 | 52 | 149 | 0.0 | 0.0 | 0.00 | 0.26 | 0.00 | 97 | 1011.9 |
| 20260510111520 | 52 | 149 | 0.0 | 0.0 | 0.00 | 0.26 | 0.00 | 97 | 1011.8 |
| 20260510110035 | 51 | 149 | 0.0 | 0.0 | 0.00 | 0.26 | 0.00 | 97 | 1011.7 |
| 20260510104516 | 51 | 149 | 0.0 | 0.0 | 0.00 | 0.31 | 0.00 | 97 | 1011.7 |
| 20260510103013 | 51 | 149 | 0.0 | 0.0 | 0.00 | 0.31 | 0.00 | 97 | 1011.3 |
| 20260510101512 | 50 | 150 | 0.0 | 0.0 | 0.00 | 0.31 | 0.00 | 97 | 1011.1 |
| 20260510100011 | 50 | 149 | 0.0 | 0.0 | 0.00 | 0.35 | 0.00 | 97 | 1010.8 |
| 20260510094510 | 50 | 150 | 0.0 | 0.0 | 0.00 | 0.35 | 0.00 | 97 | 1010.3 |
| 20260510093009 | 50 | 149 | 0.0 | 0.0 | 0.00 | 0.35 | 0.00 | 96 | 1010.4 |
| 20260510091508 | 50 | 149 | 0.0 | 0.9 | 0.00 | 0.35 | 0.00 | 96 | 1010.4 |
| 20260510090009 | 50 | 150 | 0.0 | 0.0 | 0.00 | 0.35 | 0.00 | 96 | 1010.4 |
| 20260510084508 | 50 | 150 | 0.0 | 0.0 | 0.00 | 0.35 | 0.00 | 96 | 1010.8 |
| 20260510083007 | 51 | 149 | 0.0 | 0.0 | 0.00 | 0.35 | 0.00 | 96 | 1010.9 |
| 20260510081506 | 51 | 239 | 0.0 | 0.0 | 0.00 | 0.35 | 0.00 | 96 | 1010.9 |
| 20260510080013 | 51 | 239 | 0.0 | 0.0 | 0.00 | 0.35 | 0.00 | 96 | 1011.1 |
| 20260510074505 | 51 | 239 | 0.0 | 0.9 | 0.00 | 0.35 | 0.00 | 96 | 1011.0 |
| 20260510073003 | 50 | 231 | 0.0 | 0.0 | 0.00 | 0.35 | 0.00 | 97 | 1010.8 |
| 20260510071502 | 50 | 229 | 0.0 | 0.0 | 0.00 | 0.35 | 0.00 | 97 | 1010.5 |
| 20260510070114 | 50 | 229 | 0.0 | 0.9 | 0.00 | 0.35 | 0.00 | 97 | 1010.6 |
| 20260510064559 | 50 | 229 | 0.0 | 0.0 | 0.00 | 0.35 | 0.00 | 97 | 1010.7 |
| 20260510063058 | 49 | 231 | 0.0 | 0.0 | 0.00 | 0.35 | 0.00 | 96 | 1010.6 |
| 20260510061557 | 49 | 231 | 0.0 | 0.0 | 0.00 | 0.35 | 0.00 | 96 | 1010.5 |
| 20260510060059 | 48 | 231 | 0.0 | 0.0 | 0.00 | 0.35 | 0.00 | 96 | 1010.6 |
| 20260510054555 | 48 | 231 | 0.0 | 0.0 | 0.00 | 0.35 | 0.00 | 96 | 1010.3 |
| 20260510053058 | 48 | 231 | 0.0 | 0.9 | 0.00 | 0.35 | 0.00 | 96 | 1010.6 |
| 20260510051604 | 48 | 229 | 0.0 | 0.0 | 0.00 | 0.35 | 0.00 | 96 | 1010.7 |
| 20260510050059 | 49 | 229 | 0.0 | 0.0 | 0.00 | 0.35 | 0.00 | 96 | 1010.5 |
| 20260510044548 | 49 | 229 | 0.0 | 0.0 | 0.00 | 0.35 | 0.00 | 96 | 1010.5 |
| 20260510043047 | 50 | 229 | 0.0 | 0.0 | 0.00 | 0.35 | 0.00 | 96 | 1010.6 |
| 20260510041544 | 50 | 230 | 0.0 | 0.0 | 0.00 | 0.35 | 0.00 | 96 | 1010.6 |
| 20260510040042 | 50 | 229 | 0.0 | 0.0 | 0.00 | 0.35 | 0.00 | 96 | 1010.7 |
| 20260510034541 | 50 | 231 | 0.0 | 0.0 | 0.00 | 0.35 | 0.35 | 96 | 1010.8 |
| 20260510033052 | 50 | 229 | 0.0 | 0.0 | 0.00 | 0.35 | 0.35 | 96 | 1010.8 |
| 20260510031545 | 50 | 229 | 0.0 | 0.0 | 0.00 | 0.35 | 0.35 | 96 | 1010.8 |
| 20260510030041 | 50 | 231 | 0.0 | 0.0 | 0.00 | 0.35 | 0.35 | 96 | 1010.7 |
| 20260510024539 | 50 | 229 | 0.0 | 0.0 | 0.00 | 0.35 | 0.35 | 96 | 1010.7 |
| 20260510023038 | 50 | 231 | 0.0 | 0.0 | 0.00 | 0.35 | 0.35 | 96 | 1010.7 |
| 20260510021629 | 50 | 229 | 0.0 | 0.0 | 0.00 | 0.35 | 0.35 | 96 | 1010.6 |
| 20260510020037 | 50 | 229 | 0.0 | 0.0 | 0.00 | 0.35 | 0.35 | 96 | 1011.2 |
| 20260510014548 | 50 | 229 | 0.0 | 0.0 | 0.00 | 0.35 | 0.35 | 96 | 1011.3 |
| 20260510013035 | 50 | 229 | 0.0 | 0.0 | 0.00 | 0.35 | 0.35 | 96 | 1011.5 |
| 20260510011535 | 50 | 229 | 0.0 | 0.0 | 0.00 | 0.35 | 0.35 | 96 | 1011.1 |
| 20260510010043 | 49 | 229 | 0.0 | 0.0 | 0.00 | 0.35 | 0.35 | 96 | 1010.7 |
| 20260510004534 | 49 | 230 | 0.0 | 0.0 | 0.00 | 0.35 | 0.35 | 96 | 1010.5 |
| 20260510003033 | 49 | 229 | 0.0 | 0.0 | 0.00 | 0.35 | 0.35 | 96 | 1010.5 |
| 20260510001534 | 49 | 229 | 0.0 | 0.0 | 0.00 | 0.35 | 0.35 | 96 | 1010.4 |
| 20260510000032 | 50 | 229 | 0.0 | 0.0 | 0.00 | 0.35 | 0.35 | 96 | 1010.5 |
| 20260509234533 | 49 | 229 | 0.0 | 0.0 | 0.00 | 0.35 | 0.35 | 96 | 1010.4 |
| 20260509233033 | 49 | 229 | 0.0 | 0.0 | 0.00 | 0.35 | 0.35 | 95 | 1010.9 |
| 20260509231529 | 49 | 229 | 0.0 | 0.0 | 0.00 | 0.35 | 0.35 | 95 | 1010.5 |
| 20260509230036 | 49 | 229 | 0.0 | 0.0 | 0.00 | 0.35 | 0.35 | 95 | 1010.4 |
| 20260509224527 | 49 | 229 | 0.0 | 0.0 | 0.01 | 0.35 | 0.35 | 95 | 1010.4 |
| 20260509223026 | 49 | 229 | 0.0 | 0.0 | 0.01 | 0.35 | 0.35 | 95 | 1010.3 |
| 20260509221524 | 49 | 229 | 0.0 | 0.9 | 0.02 | 0.35 | 0.35 | 95 | 1010.4 |
| 20260509220023 | 49 | 229 | 0.0 | 0.0 | 0.03 | 0.35 | 0.35 | 95 | 1010.5 |
| 20260509214522 | 49 | 229 | 0.0 | 0.0 | 0.03 | 0.34 | 0.34 | 95 | 1010.5 |
| 20260509213022 | 49 | 229 | 0.0 | 0.0 | 0.04 | 0.34 | 0.34 | 95 | 1010.5 |
| 20260509211519 | 48 | 229 | 0.0 | 0.0 | 0.04 | 0.33 | 0.33 | 94 | 1010.7 |
| 20260509210018 | 48 | 229 | 0.0 | 0.0 | 0.04 | 0.32 | 0.32 | 94 | 1010.9 |
| 20260509204516 | 49 | 141 | 0.0 | 0.0 | 0.04 | 0.31 | 0.31 | 94 | 1011.1 |
| 20260509203022 | 49 | 141 | 0.0 | 0.0 | 0.04 | 0.30 | 0.30 | 94 | 1011.4 |
| 20260509201516 | 49 | 140 | 0.0 | 0.0 | 0.03 | 0.28 | 0.28 | 94 | 1011.4 |
| 20260509200012 | 49 | 259 | 0.0 | 0.0 | 0.03 | 0.28 | 0.28 | 94 | 1011.7 |
| 20260509194515 | 49 | 260 | 0.0 | 0.0 | 0.02 | 0.27 | 0.27 | 94 | 1011.7 |